Terminal Aerodrome Forecast
Issued by NWS

Home | Current Version | Previous Version | Text Only | Print | Product List | Glossary On
Versions: 1 2 3 4 5 6 7 8 9 10 11 12 13 14
000
FTAK31 PANC 171726
TAFADQ
TAF
PADQ 171726Z 1718/1818 32008KT P6SM VCSH SCT025 BKN035
      TEMPO 1718/1720 BKN025
     FM172100 30010KT P6SM SCT035 BKN060
     FM180200 30012G18KT P6SM SCT060=

USA.gov is the U.S. government's official web portal to all federal, state and local government web resources and services.